| time (UTC) | temp C | wind direction | speed KPH | gust KPH | rain 1hr cm | rain 24hr cm | rain mn cm | humidity % | barometer mb |
| 20260831193458 | 21 | 343 | 1.6 | 6.4 | 0.00 | 0.00 | 0.00 | 38 | 1013.9 |
| 20260831192446 | 21 | 337 | 1.6 | 11.3 | 0.00 | 0.00 | 0.00 | 37 | 1014.1 |
| 20260831191435 | 20 | 338 | 1.6 | 11.3 | 0.00 | 0.00 | 0.00 | 38 | 1014.3 |
| 20260831185359 | 21 | 337 | 1.6 | 11.3 | 0.00 | 0.00 | 0.00 | 38 | 1014.5 |
| 20260831184411 | 21 | 337 | 1.6 | 11.3 | 0.00 | 0.00 | 0.00 | 40 | 1014.5 |
| 20260831183425 | 20 | 193 | 1.6 | 9.7 | 0.00 | 0.00 | 0.00 | 39 | 1014.6 |
| 20260831182429 | 20 | 193 | 1.6 | 9.7 | 0.00 | 0.00 | 0.00 | 38 | 1014.6 |
| 20260831181444 | 20 | 193 | 1.6 | 8.0 | 0.00 | 0.00 | 0.00 | 40 | 1014.7 |
| 20260831180420 | 20 | 193 | 1.6 | 11.3 | 0.00 | 0.00 | 0.00 | 40 | 1014.8 |
| 20260831175420 | 19 | 194 | 1.6 | 11.3 | 0.00 | 0.00 | 0.00 | 41 | 1014.8 |
| 20260831174409 | 19 | 347 | 1.6 | 9.7 | 0.00 | 0.00 | 0.00 | 41 | 1014.9 |
| 20260831173356 | 19 | 338 | 1.6 | 12.9 | 0.00 | 0.00 | 0.00 | 41 | 1015.0 |
| 20260831171225 | 18 | 339 | 1.6 | 14.5 | 0.00 | 0.00 | 0.00 | 43 | 1015.2 |
| 20260831165039 | 17 | 337 | 1.6 | 14.5 | 0.00 | 0.00 | 0.00 | 46 | 1015.3 |
| 20260831164021 | 17 | 341 | 3.2 | 14.5 | 0.00 | 0.00 | 0.00 | 43 | 1015.3 |
| 20260831163025 | 17 | 338 | 1.6 | 16.1 | 0.00 | 0.00 | 0.00 | 45 | 1015.2 |
| 20260831160906 | 16 | 181 | 1.6 | 9.7 | 0.00 | 0.00 | 0.00 | 49 | 1015.3 |
| 20260831153636 | 14 | 188 | 0.0 | 6.4 | 0.00 | 0.00 | 0.00 | 51 | 1015.2 |
| 20260831152620 | 14 | 188 | 0.0 | 4.8 | 0.00 | 0.00 | 0.00 | 55 | 1015.4 |
| 20260831151554 | 13 | 188 | 1.6 | 6.4 | 0.00 | 0.00 | 0.00 | 53 | 1015.4 |
| 20260831150530 | 12 | 188 | 1.6 | 8.0 | 0.00 | 0.00 | 0.00 | 55 | 1015.2 |
| 20260831145539 | 11 | 188 | 0.0 | 8.0 | 0.00 | 0.00 | 0.00 | 62 | 1015.2 |
| 20260831143423 | 10 | 187 | 0.0 | 0.0 | 0.00 | 0.00 | 0.00 | 73 | 1015.2 |
| 20260831142413 | 9 | 4 | 0.0 | 0.0 | 0.00 | 0.00 | 0.00 | 73 | 1015.0 |
| 20260831141434 | 8 | 7 | 0.0 | 0.0 | 0.00 | 0.00 | 0.00 | 74 | 1015.0 |
| 20260831140452 | 8 | 24 | 0.0 | 0.0 | 0.00 | 0.00 | 0.00 | 75 | 1014.9 |
| 20260831135453 | 7 | 31 | 0.0 | 0.0 | 0.00 | 0.00 | 0.00 | 73 | 1014.8 |
| 20260831134445 | 7 | 190 | 0.0 | 0.0 | 0.00 | 0.00 | 0.00 | 75 | 1014.8 |
| 20260831132312 | 7 | 191 | 0.0 | 0.0 | 0.00 | 0.00 | 0.00 | 72 | 1014.4 |
| 20260831130132 | 7 | 191 | 0.0 | 0.0 | 0.00 | 0.00 | 0.00 | 69 | 1014.2 |
| 20260831123926 | 8 | 191 | 0.0 | 0.0 | 0.00 | 0.00 | 0.00 | 66 | 1013.6 |
| 20260831122935 | 8 | 191 | 0.0 | 0.0 | 0.00 | 0.00 | 0.00 | 66 | 1013.6 |
| 20260831121954 | 8 | 191 | 1.6 | 6.4 | 0.00 | 0.00 | 0.00 | 64 | 1013.4 |
| 20260831121014 | 8 | 191 | 0.0 | 6.4 | 0.00 | 0.00 | 0.00 | 66 | 1013.5 |
| 20260831120004 | 8 | 191 | 0.0 | 0.0 | 0.00 | 0.00 | 0.00 | 67 | 1013.4 |
| 20260831115002 | 8 | 191 | 0.0 | 0.0 | 0.00 | 0.00 | 0.00 | 66 | 1013.3 |
| 20260831113934 | 8 | 191 | 0.0 | 3.2 | 0.00 | 0.00 | 0.00 | 67 | 1013.2 |
| 20260831112937 | 8 | 191 | 0.0 | 1.6 | 0.00 | 0.00 | 0.00 | 68 | 1013.0 |
| 20260831110814 | 7 | 191 | 0.0 | 0.0 | 0.00 | 0.00 | 0.00 | 71 | 1012.8 |
| 20260831105819 | 7 | 191 | 0.0 | 0.0 | 0.00 | 0.00 | 0.00 | 70 | 1012.6 |
| 20260831104826 | 7 | 191 | 0.0 | 0.0 | 0.00 | 0.03 | 0.00 | 71 | 1012.6 |
| 20260831103845 | 7 | 191 | 0.0 | 0.0 | 0.00 | 0.03 | 0.00 | 70 | 1012.5 |
| 20260831102826 | 7 | 191 | 0.0 | 0.0 | 0.00 | 0.03 | 0.00 | 71 | 1012.4 |
| 20260831101753 | 7 | 191 | 0.0 | 6.4 | 0.00 | 0.03 | 0.00 | 71 | 1012.4 |
| 20260831100722 | 7 | 42 | 0.0 | 0.0 | 0.00 | 0.03 | 0.00 | 69 | 1012.4 |
| 20260831095721 | 8 | 39 | 0.0 | 0.0 | 0.00 | 0.03 | 0.00 | 67 | 1012.4 |
| 20260831093544 | 9 | 28 | 0.0 | 0.0 | 0.00 | 0.03 | 0.00 | 63 | 1012.0 |
| 20260831091415 | 10 | 20 | 1.6 | 6.4 | 0.00 | 0.03 | 0.00 | 59 | 1012.0 |
| 20260831090414 | 10 | 18 | 0.0 | 4.8 | 0.00 | 0.03 | 0.00 | 58 | 1012.1 |
| 20260831085415 | 11 | 13 | 0.0 | 0.0 | 0.00 | 0.03 | 0.00 | 55 | 1012.2 |
| 20260831082032 | 12 | 355 | 1.6 | 11.3 | 0.00 | 0.03 | 0.00 | 51 | 1012.4 |
| 20260831075839 | 12 | 353 | 1.6 | 16.1 | 0.00 | 0.03 | 0.00 | 51 | 1012.2 |
| 20260831074832 | 12 | 355 | 1.6 | 16.1 | 0.00 | 0.03 | 0.00 | 50 | 1012.2 |
| 20260831073807 | 12 | 354 | 3.2 | 16.1 | 0.00 | 0.03 | 0.00 | 51 | 1012.1 |
| 20260831072802 | 11 | 0 | 3.2 | 12.9 | 0.00 | 0.03 | 0.00 | 54 | 1012.0 |
| 20260831071801 | 10 | 14 | 1.6 | 12.9 | 0.00 | 0.03 | 0.00 | 58 | 1011.9 |
| 20260831070754 | 9 | 35 | 0.0 | 6.4 | 0.00 | 0.03 | 0.00 | 63 | 1011.9 |
| 20260831065756 | 9 | 41 | 0.0 | 1.6 | 0.00 | 0.03 | 0.00 | 65 | 1012.0 |
| 20260831064814 | 9 | 37 | 0.0 | 1.6 | 0.00 | 0.03 | 0.00 | 67 | 1011.9 |
| 20260831063820 | 9 | 37 | 0.0 | 0.0 | 0.00 | 0.03 | 0.00 | 67 | 1011.9 |
| 20260831062745 | 8 | 37 | 0.0 | 1.6 | 0.00 | 0.03 | 0.00 | 67 | 1011.8 |
| 20260831060542 | 8 | 36 | 0.0 | 4.8 | 0.00 | 0.03 | 0.00 | 67 | 1011.8 |
| 20260831055520 | 8 | 38 | 0.0 | 0.0 | 0.00 | 0.03 | 0.03 | 67 | 1011.6 |
| 20260831054508 | 9 | 38 | 0.0 | 0.0 | 0.00 | 0.03 | 0.03 | 66 | 1011.6 |
| 20260831053434 | 9 | 34 | 0.0 | 0.0 | 0.00 | 0.03 | 0.03 | 66 | 1011.5 |
| 20260831052414 | 10 | 32 | 0.0 | 0.0 | 0.00 | 0.03 | 0.03 | 64 | 1011.6 |
| 20260831051430 | 10 | 34 | 0.0 | 0.0 | 0.00 | 0.03 | 0.03 | 68 | 1011.3 |
| 20260831050451 | 10 | 32 | 0.0 | 0.0 | 0.00 | 0.03 | 0.03 | 66 | 1011.3 |
| 20260831045430 | 10 | 30 | 0.0 | 0.0 | 0.00 | 0.03 | 0.03 | 64 | 1011.3 |
| 20260831044414 | 10 | 30 | 0.0 | 0.0 | 0.00 | 0.03 | 0.03 | 65 | 1011.2 |
| 20260831040030 | 10 | 24 | 0.0 | 0.0 | 0.00 | 0.03 | 0.03 | 65 | 1010.7 |
| 20260831035055 | 10 | 28 | 0.0 | 0.0 | 0.00 | 0.03 | 0.03 | 66 | 1010.6 |
| 20260831034041 | 11 | 18 | 0.0 | 0.0 | 0.00 | 0.03 | 0.03 | 63 | 1010.5 |
| 20260831031938 | 12 | 357 | 0.0 | 0.0 | 0.00 | 0.03 | 0.03 | 61 | 1010.3 |
| 20260831030913 | 12 | 352 | 0.0 | 0.0 | 0.00 | 0.03 | 0.03 | 55 | 1010.2 |
| 20260831025933 | 13 | 346 | 0.0 | 0.0 | 0.00 | 0.03 | 0.03 | 53 | 1010.1 |
| 20260831024905 | 13 | 344 | 0.0 | 0.0 | 0.00 | 0.03 | 0.03 | 49 | 1010.0 |
| 20260831023858 | 14 | 344 | 0.0 | 0.0 | 0.00 | 0.03 | 0.03 | 48 | 1009.8 |
| 20260831022916 | 15 | 342 | 0.0 | 0.0 | 0.00 | 0.03 | 0.03 | 46 | 1009.6 |
| 20260831015739 | 16 | 338 | 0.0 | 3.2 | 0.00 | 0.03 | 0.03 | 43 | 1009.3 |
| 20260831014756 | 16 | 337 | 0.0 | 4.8 | 0.00 | 0.03 | 0.03 | 42 | 1009.1 |
| 20260831012705 | 17 | 336 | 0.0 | 3.2 | 0.00 | 0.05 | 0.03 | 42 | 1008.9 |
| 20260831010531 | 18 | 337 | 1.6 | 4.8 | 0.00 | 0.13 | 0.03 | 39 | 1008.8 |
| 20260831005532 | 18 | 337 | 1.6 | 14.5 | 0.00 | 0.13 | 0.03 | 38 | 1008.8 |
| 20260831004542 | 18 | 337 | 1.6 | 14.5 | 0.00 | 0.13 | 0.03 | 36 | 1008.8 |
| 20260831003526 | 18 | 337 | 1.6 | 9.7 | 0.00 | 0.13 | 0.03 | 37 | 1008.6 |
| 20260831002517 | 18 | 337 | 1.6 | 14.5 | 0.00 | 0.13 | 0.03 | 36 | 1008.6 |
| 20260831001537 | 18 | 337 | 0.0 | 14.5 | 0.00 | 0.13 | 0.03 | 40 | 1008.6 |
| 20260831000527 | 17 | 336 | 1.6 | 12.9 | 0.00 | 0.13 | 0.03 | 38 | 1008.7 |
| 20260830235543 | 18 | 336 | 1.6 | 6.4 | 0.00 | 0.13 | 0.03 | 41 | 1008.5 |
| 20260830234539 | 18 | 336 | 0.0 | 6.4 | 0.00 | 0.13 | 0.03 | 40 | 1008.6 |
| 20260830233513 | 18 | 337 | 1.6 | 9.7 | 0.00 | 0.13 | 0.03 | 36 | 1008.6 |
| 20260830232520 | 18 | 338 | 1.6 | 9.7 | 0.00 | 0.13 | 0.03 | 41 | 1008.7 |
| 20260830230432 | 18 | 337 | 1.6 | 9.7 | 0.00 | 0.13 | 0.03 | 37 | 1008.6 |
| 20260830224247 | 20 | 338 | 1.6 | 6.4 | 0.00 | 0.13 | 0.03 | 32 | 1008.5 |
| 20260830223308 | 21 | 339 | 1.6 | 16.1 | 0.00 | 0.13 | 0.03 | 32 | 1008.5 |
| 20260830222254 | 21 | 349 | 3.2 | 17.7 | 0.00 | 0.13 | 0.03 | 32 | 1008.6 |
| 20260830221226 | 21 | 351 | 3.2 | 17.7 | 0.00 | 0.13 | 0.03 | 32 | 1008.5 |
| 20260830215046 | 21 | 338 | 3.2 | 17.7 | 0.00 | 0.13 | 0.03 | 31 | 1008.5 |
| 20260830214034 | 20 | 349 | 4.8 | 17.7 | 0.00 | 0.13 | 0.03 | 32 | 1008.6 |
| 20260830213038 | 20 | 337 | 1.6 | 9.7 | 0.00 | 0.13 | 0.03 | 36 | 1008.6 |
| 20260830212033 | 20 | 337 | 1.6 | 6.4 | 0.00 | 0.13 | 0.03 | 38 | 1008.6 |
| 20260830211038 | 20 | 336 | 1.6 | 12.9 | 0.00 | 0.13 | 0.03 | 36 | 1008.7 |
| 20260830210016 | 20 | 336 | 3.2 | 12.9 | 0.00 | 0.13 | 0.03 | 39 | 1008.6 |
| 20260830205007 | 19 | 336 | 1.6 | 12.9 | 0.00 | 0.13 | 0.03 | 41 | 1008.6 |
| 20260830203950 | 17 | 336 | 1.6 | 12.9 | 0.00 | 0.13 | 0.03 | 47 | 1008.6 |
| 20260830203000 | 17 | 336 | 1.6 | 12.9 | 0.00 | 0.13 | 0.03 | 52 | 1008.7 |
| 20260830201927 | 17 | 336 | 1.6 | 9.7 | 0.00 | 0.13 | 0.03 | 48 | 1008.6 |
| 20260830200921 | 18 | 336 | 1.6 | 9.7 | 0.00 | 0.13 | 0.03 | 60 | 1008.5 |
| 20260830195923 | 18 | 337 | 1.6 | 11.3 | 0.00 | 0.13 | 0.03 | 53 | 1008.5 |
| 20260830194858 | 18 | 336 | 1.6 | 11.3 | 0.00 | 0.13 | 0.03 | 60 | 1008.4 |